Terug naar catalogus

STARLINK-32395

ActiefCommunicatieVLEO
NORAD 61679·PAYLOAD·🇺🇸 United States

Gelanceerd Oct 26, 2024 vanaf Cape Canaveral Space Force Station

Loading…

Volgende Passages (komende 24 uur)

TLE

VersSource: CelesTrak SupGP

Epoch: Sep 15, 2026, 02:18 UTC

1 61679C 24193U   26258.09631944  .00028029  00000+0  82806-3 0  2582
2 61679  53.1583 290.6925 0001222  95.8442 248.7838 15.34378717    15

Volg STARLINK-32395 in realtime met AllMySat

Download on the App Store